Content
SEND FEEDBACK

Daily
Averages
Monthly
Summary
United States of America

SMITHVILLE, OKLAHOMA


Home > North America > United States > Oklahoma
Elevation: 759 feet     Latitude: 34 28N     Longitude: 094 40W

WEATHER
 
SELECT A DAY
Number of Records: 232,101;   Date Range: 11/25/04 - 7/7/14
 
SHARE

PRINT THIS DATA

[ ← Previous Day ]
WEATHER ALMANAC - FEBRUARY 13, 2013
[ Next Day → ]
[ °C ]   °F
Weather ElementAverageHighLow
Temperature45.7 °F55.4 °F (2:55 pm)39.2 °F (7:35 am)
Dewpoint35.8 °F41 °F (3:15 am)24.8 °F (4:55 pm)
Humidity72.1 %100 % (3:15 am)31 % (4:55 pm)
Barometer30.00 in30.07 in (10:35 am)29.93 in (1:15 am)
Wind Speed5.4 mph11.5 mph (2:15 pm)
Wind Gust17.3 mph (3:15 pm)
Weather ElementAverage
Visibility10 mi
Wind DirectionWSW (256.2 °)

Weather ElementTotal
Precipitation0.03 in
Heating Degree Days17.7 (Base 65)
Averaged from 68 records on February 13, 2013
WEATHER CONDITIONS BREAKOUT
WIND DIRECTION BREAKOUT
WEATHER BY HOUR - FEBRUARY 13, 2013
[ °C ]   °F
Local TimeTemperatureDewpointHumidityBarometerVisibilityWind DirectionWind SpeedGust SpeedPrecipitationEventsConditions
1:15 AM41.0 °F39.2 °F93 %29.93 in10.0 miNW (310°)4.6 mphOvercast
1:35 AM41.0 °F39.2 °F93 %29.93 in10.0 miNNW (340°)6.9 mphOvercast
1:55 AM41.0 °F39.2 °F93 %29.93 in10.0 miNW (320°)5.8 mphOvercast
2:15 AM41.0 °F39.2 °F93 %29.93 in10.0 miNNW (340°)4.6 mphOvercast
2:35 AM41.0 °F39.2 °F93 %29.93 in10.0 miNW (310°)4.6 mphOvercast
2:55 AM41.0 °F39.2 °F93 %29.94 in10.0 miNW (320°)4.6 mphOvercast
3:15 AM41.0 °F41.0 °F100 %29.93 in10.0 miNW (310°)3.5 mphOvercast
3:35 AM41.0 °F41.0 °F100 %29.94 in10.0 miCalmOvercast
3:55 AM41.0 °F41.0 °F100 %29.94 in10.0 miNW (320°)4.6 mphOvercast
4:15 AM41.0 °F39.2 °F93 %29.94 in10.0 miCalmOvercast
4:35 AM41.0 °F41.0 °F100 %29.95 in10.0 miNW (320°)3.5 mphOvercast
4:55 AM41.0 °F41.0 °F100 %29.95 in10.0 miNW (320°)4.6 mphOvercast
5:15 AM41.0 °F39.2 °F93 %29.96 in10.0 miWNW (300°)6.9 mphOvercast
5:35 AM41.0 °F39.2 °F93 %29.96 in10.0 miWest (270°)4.6 mphOvercast
5:55 AM41.0 °F39.2 °F93 %29.97 in10.0 miWest (280°)6.9 mphOvercast
6:15 AM41.0 °F39.2 °F93 %29.99 in10.0 miWest (270°)6.9 mphOvercast
6:35 AM41.0 °F41.0 °F100 %30.00 in10.0 miWNW (290°)4.6 mphOvercast
6:55 AM41.0 °F41.0 °F100 %30.00 in10.0 miWest (280°)6.9 mphOvercast
7:15 AM41.0 °F41.0 °F100 %30.01 in10.0 miWest (280°)8.1 mphOvercast
7:35 AM39.2 °F39.2 °F100 %30.01 in10.0 miWNW (300°)4.6 mphOvercast
7:55 AM39.2 °F39.2 °F100 %30.03 in10.0 miWNW (300°)5.8 mphOvercast
8:15 AM41.0 °F41.0 °F100 %30.03 in10.0 miWest (280°)6.9 mphOvercast
8:35 AM41.0 °F41.0 °F100 %30.04 in10.0 miWest (270°)6.9 mphOvercast
8:55 AM41.0 °F41.0 °F100 %30.05 in10.0 miWest (270°)10.4 mphOvercast
9:15 AM41.0 °F41.0 °F100 %30.06 in10.0 miWest (280°)8.1 mphOvercast
9:35 AM42.8 °F41.0 °F93 %30.06 in10.0 miWNW (290°)6.9 mphOvercast
10:15 AM42.8 °F41.0 °F93 %30.06 in10.0 miNNW (330°)5.8 mphOvercast
10:35 AM44.6 °F35.6 °F71 %30.07 in10.0 miNNW (330°)5.8 mphOvercast
10:55 AM44.6 °F35.6 °F71 %30.07 in10.0 miNorth (360°)4.6 mphOvercast
11:15 AM44.6 °F35.6 °F71 %30.07 in10.0 miNorth (360°)5.8 mphOvercast
11:35 AM46.4 °F37.4 °F71 %30.06 in10.0 miNW (310°)3.5 mphOvercast
11:55 AM46.4 °F35.6 °F66 %30.06 in10.0 miWest (280°)6.9 mphMostly Cloudy
12:15 PM46.4 °F33.8 °F62 %30.05 in10.0 miCalmScattered Clouds
12:35 PM50.0 °F35.6 °F58 %30.04 in10.0 miWNW (300°)5.8 mphClear
12:55 PM50.0 °F33.8 °F54 %30.04 in10.0 miWNW (300°)6.9 mphClear
1:15 PM51.8 °F35.6 °F54 %30.03 in10.0 miWest (260°)6.9 mphClear
1:35 PM51.8 °F33.8 °F50 %30.01 in10.0 miWest (260°)5.8 mphClear
1:55 PM53.6 °F33.8 °F47 %30.00 in10.0 miWSW (240°)4.6 mphClear
2:15 PM53.6 °F33.8 °F47 %30.00 in10.0 miWest (270°)11.5 mphScattered Clouds
2:35 PM53.6 °F32.0 °F44 %29.98 in10.0 miSW (230°)4.6 mphClear
2:55 PM55.4 °F33.8 °F44 %29.98 in10.0 miCalmClear
3:15 PM55.4 °F26.6 °F33 %29.98 in10.0 miWNW (290°)11.5 mph17.3 mph0.01 inClear
3:35 PM55.4 °F28.4 °F36 %29.98 in10.0 miWest (270°)11.5 mph16.1 mph0.01 inClear
3:55 PM55.4 °F30.2 °F38 %29.97 in10.0 miWSW (240°)6.9 mph0.01 inClear
4:15 PM55.4 °F30.2 °F38 %29.97 in10.0 miWSW (240°)8.1 mphClear
4:35 PM55.4 °F28.4 °F36 %29.97 in10.0 miWSW (240°)6.9 mphClear
4:55 PM55.4 °F24.8 °F31 %29.97 in10.0 miNW (310°)6.9 mphClear
5:15 PM53.6 °F26.6 °F35 %29.98 in10.0 miWNW (300°)8.1 mphClear
5:35 PM53.6 °F30.2 °F41 %29.98 in10.0 miWNW (300°)8.1 mphClear
5:55 PM50.0 °F32.0 °F50 %29.98 in10.0 miWest (270°)4.6 mphClear
6:15 PM50.0 °F32.0 °F50 %29.98 in10.0 miSW (230°)3.5 mphClear
6:35 PM48.2 °F32.0 °F54 %29.98 in10.0 miSSW (210°)3.5 mphClear
6:55 PM44.6 °F32.0 °F61 %29.99 in10.0 miSSW (210°)3.5 mphClear
7:15 PM46.4 °F32.0 °F57 %29.99 in10.0 miSW (220°)3.5 mphClear
7:35 PM44.6 °F32.0 °F61 %30.00 in10.0 miSW (220°)3.5 mphClear
7:55 PM46.4 °F32.0 °F57 %30.00 in10.0 miSW (230°)4.6 mphClear
8:15 PM46.4 °F32.0 °F57 %30.01 in10.0 miSW (230°)4.6 mphClear
8:35 PM46.4 °F33.8 °F62 %30.01 in10.0 miWSW (240°)4.6 mphClear
8:55 PM46.4 °F33.8 °F62 %30.01 in10.0 miWSW (240°)6.9 mphClear
9:15 PM46.4 °F33.8 °F62 %30.01 in10.0 miWSW (240°)4.6 mphClear
9:35 PM44.6 °F35.6 °F71 %30.01 in10.0 miWSW (240°)5.8 mphClear
9:55 PM44.6 °F35.6 °F71 %30.02 in10.0 miWSW (240°)5.8 mphClear
10:15 PM44.6 °F33.8 °F66 %30.02 in10.0 miWSW (250°)3.5 mphClear
10:35 PM44.6 °F35.6 °F71 %30.03 in10.0 miWSW (250°)3.5 mphClear
10:55 PM44.6 °F35.6 °F71 %30.03 in10.0 miSW (230°)3.5 mphClear
11:15 PM42.8 °F33.8 °F70 %30.03 in10.0 miWSW (240°)3.5 mphClear
11:35 PM44.6 °F35.6 °F71 %30.03 in10.0 miWSW (240°)3.5 mphClear
11:55 PM44.6 °F35.6 °F71 %30.03 in10.0 miCalmClear
Hourly data recorded from KMEZ, located miles away from Smithville, Oklahoma







STORIES FROM OUR PARTNERS